Vauxhall, Alberta

11:43 PM MDT on April 24, 2017 (GMT -0600)
Vauxhall

Weather History for CWVO - September, 2013

Change the Weather History Date:

Monday, September 9, 2013

  Actual Average Record
Temperature  
Mean Temperature 66 °F -  
Max Temperature 81 °F - - ()
Min Temperature 50 °F - - ()
Growing Degree Days 16 (Base 50)    
Moisture  
Dew Point 51 °F    
Average Humidity 64    
Maximum Humidity 95    
Minimum Humidity 22    
Precipitation  
Precipitation 0.06 in - - ()
Sea Level Pressure  
Sea Level Pressure 29.89 in    
Wind  
Wind Speed 5 mph ()    
Max Wind Speed 15 mph    
Max Gust Speed -    
T = Trace of Precipitation, MM = Missing Value Source: Averaged Metar Reports

Daily Weather History Graph

Daily Weather History Graph

Search for Another Location

Airport or City:

Trip Planner

Search our weather history database for the weather conditions in past years. The results will help you decide how hot, cold, wet, or windy it might be!

Date:

Astronomy

Sep. 09, 2013 Rise Set
Actual Time 6:55 AM MDT 7:54 PM MDT
Civil Twilight 6:22 AM MDT 8:27 PM MDT
Nautical Twilight 5:43 AM MDT 9:06 PM MDT
Astronomical Twilight 5:00 AM MDT 9:48 PM MDT
Moon 11:52 AM MDT (9/9) 9:41 PM MDT (9/9)
Length of Visible Light 14h 04m
Length of Day
12h 58m
Waxing Crescent, 19% of the Moon is Illuminated
Sep 9
Waxing Crescent
Sep 12
First Quarter
Sep 19
Full
Sep 26
Last Quarter
Oct 4
New

Hourly Weather History & Observations

Time (MDT) Temp. Dew Point Humidity Pressure Visibility Wind Dir Wind Speed Gust Speed Precip Events Conditions
12:00 AM 58.8 °F 56.5 °F 92% 29.86 in - ESE 4.6 mph - N/A   Unknown
1:00 AM 58.1 °F 56.3 °F 94% 29.86 in - South 2.3 mph - N/A   Unknown
2:00 AM 57.6 °F 56.1 °F 95% 29.85 in - SW 5.8 mph - N/A   Unknown
3:00 AM 56.5 °F 54.5 °F 93% 29.84 in - West 2.3 mph - N/A   Unknown
4:00 AM 54.5 °F 52.9 °F 94% 29.84 in - WNW 6.9 mph - N/A   Unknown
5:00 AM 53.4 °F 52.0 °F 95% 29.86 in - NW 4.6 mph - N/A   Unknown
6:00 AM 51 °F 49 °F 92% 29.88 in - WNW 3.5 mph - -  
6:00 AM 50.7 °F 49.3 °F 95% 29.88 in - WNW 4.6 mph - N/A   Unknown
7:00 AM 52.9 °F 51.3 °F 94% 29.88 in - West 8.1 mph - N/A   Unknown
8:00 AM 54.1 °F 51.8 °F 92% 29.90 in - NW 9.2 mph - N/A   Unknown
9:00 AM 57.7 °F 53.8 °F 87% 29.91 in - NW 5.8 mph - N/A   Unknown
10:00 AM 64.9 °F 54.9 °F 70% 29.91 in - NNW 15.0 mph - 0.03 in   Unknown
11:00 AM 68.4 °F 53.4 °F 59% 29.92 in - North 12.7 mph - N/A   Unknown
12:00 PM 73 °F 53 °F 38% 29.92 in - North 13.8 mph - -  
12:00 PM 72.9 °F 52.5 °F 49% 29.92 in - North 12.7 mph - N/A   Unknown
1:00 PM 76.5 °F 50.5 °F 40% 29.91 in - North 10.4 mph - N/A   Unknown
2:00 PM 78.3 °F 47.7 °F 34% 29.90 in - North 10.4 mph - 0.03 in   Unknown
3:00 PM 80.1 °F 46.8 °F 31% 29.89 in - NW 10.4 mph - N/A   Unknown
4:00 PM 80.6 °F 46.2 °F 30% 29.88 in - NNW 6.9 mph - N/A   Unknown
5:00 PM 80.8 °F 46.2 °F 30% 29.88 in - North 4.6 mph - N/A   Unknown
6:00 PM 79 °F 47 °F 22% 29.88 in - NW 3.5 mph - -  
6:00 PM 78.6 °F 47.5 °F 33% 29.88 in - NW 4.6 mph - N/A   Unknown
7:00 PM 75.6 °F 50.4 °F 41% 29.89 in - NE 2.3 mph - N/A   Unknown
8:00 PM 72.0 °F 52.5 °F 50% 29.91 in - Calm Calm - N/A   Unknown
9:00 PM 69.6 °F 47.3 °F 45% 29.92 in - East 1.2 mph - N/A   Unknown
10:00 PM 66.4 °F 51.8 °F 59% 29.93 in - East 2.3 mph - N/A   Unknown
11:00 PM 63.5 °F 51.1 °F 64% 29.93 in - ESE 4.6 mph - N/A   Unknown